Погода в Санта-Крус

Чили     34°38′15″S   71°21′58″W
темп.,
°C
ветер,
м/с
пор.,
м/с
влажн.,
%
обл.,
%
осадки,
мм/ч
давл.,
гПа
погр.,
м
20 апреля, вт
вт2023:00+12сз22703 0.0 101417
02:00+10сз2287100 0.0 101417
05:00+9ссз229839 0.0 101419
08:00+11ссз238698 0.0 1014413
11:00+14ссз4569100 0.0 1015859
14:00+21с5840100 0.0 10131239
17:00+18сз7858100 0.0 1013749
20:00+14ссз5128368 0.1 1016723
21 апреля, ср
ср2123:00+13ссз118643 0.0 101531
02:00+12зсз229021 0.0 101547
05:00+12ссв228398 0.1 101642
08:00+11ссв228186 0.1 101845
11:00+20с712375 0.0 10171667
14:00+22ссз913323 0.0 10152207
17:00+18сз7115193 0.0 10161011
20:00+13ссз378590 0.0 1019236
22 апреля, чт
чт2223:00+11ссз1196100 0.0 101910
02:00+10ююз1197100 0.0 101811
05:00+10ююв119696 0.0 101711
08:00+10юв1195100 0.0 101747
11:00+16ю2260100 0.0 1016674
14:00+21юз1138100 0.0 10141236
17:00+21ююз1136100 0.0 10141412
20:00+15юз2264100 0.0 101627
23 апреля, пт
пт2323:00+13юз1171100 0.0 101711
02:00+12ююв1179100 0.0 101710
05:00+10ююв2280100 0.0 101813
08:00+10ююв117414 0.0 101949
11:00+18ю23471 0.0 1019679
14:00+22ююз33310 0.0 10181318
17:00+22ююз44270 0.0 10171302
20:00+15ю11460 0.0 101911
24 апреля, сб
сб2423:00+12ю11625 0.0 101910
02:00+11юв1173100 0.0 102013
05:00+9ююв22870 0.0 101918
08:00+9ююв22830 0.0 102064
11:00+17ююв34440 0.0 1019520
14:00+23ю33230 0.0 1016853
17:00+23ю45210 0.0 1015924
20:00+15ю11270 0.0 101611